Home > Weather > Thun > Past weeks

Flag for Switzerland Past Weather in Thun, Bern, Switzerland — Yesterday and Last 2 Weeks

Now
72 °F

Partly sunny.


Feels Like: 72 °F
Forecast: 60 / 76 °F
Wind: 5 mph from West

Location: Bern / Belp

Current Time: Jul 26, 2016 at 10:37:13 AM

Latest Report: Jul 26, 2016 at 10:20 AM


Visibility: N/A

Pressure: 30.15 "Hg (28.27 "Hg at 557m altitude)

Humidity: 78%

Dew Point: 64 °F

Location of ThunLocation

Past Weather in Thun — Graph

°F

Thun Temperature Yesterday

Maximum temperature yesterday: 81 °F (at 3:20 PM)
Minimum temperature yesterday: 61 °F (at 4:20 AM)
Average temperature yesterday: 70 °F

High & Low Weather Summary for the Past Weeks

 TemperatureHumidityPressure
High91 °F (Jul 19, 5:50 PM)100% (Jul 12, 12:50 AM)30.33 "Hg (Jul 12, 12:50 AM)
Low43 °F (Jul 16, 4:50 AM)26% (Jul 19, 5:20 PM)29.95 "Hg (Jul 11, 12:50 PM)
Average66 °F78%30.12 "Hg
* Reported Jul 11 9:20 AM — Jul 26 9:20 AM, Thun, Weather by CustomWeather, © 2016

Note: Actual official high and low records may vary slightly from our data, if they occured in-between our weather recording intervals... More about our weather records

Advertising

Thun Weather History for the Previous 24 Hours

Scroll right to see more
 ConditionsComfort  
Time TempWeatherWind HumidityBarometerVisibility
9:20 AM
Tue, Jul 26
70 °FScattered clouds.2 mph83%30.15 "HgN/A
8:50 AM68 °FScattered clouds.2 mph88%30.15 "HgN/A
8:20 AM66 °FScattered clouds.3 mph94%30.15 "HgN/A
7:50 AM66 °FScattered clouds.5 mph94%30.12 "HgN/A
7:20 AM64 °FScattered clouds.3 mph100%30.12 "HgN/A
6:50 AM63 °FPassing clouds.3 mph100%30.12 "HgN/A
6:20 AM63 °FPassing clouds.3 mph100%30.12 "HgN/A
5:50 AM63 °FPassing clouds.5 mph100%30.12 "Hg4 mi
5:20 AM64 °FMild.5 mph94%30.12 "HgN/A
4:50 AM66 °FOvercast.6 mph88%30.12 "HgN/A
4:20 AM64 °FOvercast.3 mph100%30.15 "HgN/A
3:50 AM64 °FPartly cloudy.6 mph100%30.15 "HgN/A
3:20 AM64 °FMostly cloudy.5 mph100%30.15 "HgN/A
2:50 AM66 °FPartly cloudy.5 mph94%30.15 "HgN/A
2:20 AM66 °FMostly cloudy.6 mph94%30.15 "HgN/A
1:50 AM66 °FPartly cloudy.7 mph88%30.15 "HgN/A
1:20 AM66 °FOvercast.6 mph94%30.15 "HgN/A
12:50 AM66 °FPartly cloudy.7 mph88%30.15 "HgN/A
12:20 AM66 °FPartly cloudy.6 mph88%30.15 "HgN/A
11:50 PM
Mon, Jul 25
66 °FPartly cloudy.7 mph94%30.15 "HgN/A
11:20 PM66 °FOvercast.6 mph94%30.15 "HgN/A
10:50 PM70 °FPartly cloudy.6 mph78%30.15 "HgN/A
10:20 PM70 °FPartly cloudy.7 mph78%30.15 "HgN/A
9:50 PM70 °FBroken clouds.5 mph83%30.15 "Hg6 mi
9:20 PM72 °FBroken clouds.1 mph83%30.12 "HgN/A
8:50 PM73 °FBroken clouds.1 mph74%30.12 "HgN/A
8:20 PM73 °FBroken clouds.3 mph69%30.12 "HgN/A
7:50 PM75 °FBroken clouds.6 mph69%30.12 "HgN/A
7:20 PM75 °FBroken clouds.5 mph65%30.12 "HgN/A
6:50 PM77 °FBroken clouds.5 mph61%30.09 "HgN/A
6:20 PM77 °FScattered clouds.3 mph61%30.09 "HgN/A
5:50 PM77 °FScattered clouds.6 mph69%30.09 "HgN/A
5:20 PM77 °FScattered clouds.5 mph65%30.09 "HgN/A
4:50 PM77 °FScattered clouds.3 mph65%30.09 "HgN/A
4:20 PM79 °FScattered clouds.3 mph58%30.09 "HgN/A
3:50 PM79 °FScattered clouds.2 mph54%30.12 "HgN/A
3:20 PM81 °FPartly sunny.2 mph54%30.12 "HgN/A
2:50 PM77 °FPartly sunny.3 mph65%30.12 "HgN/A
2:20 PM75 °FLight rain. Partly sunny.3 mph74%30.12 "HgN/A
1:50 PM77 °FBroken clouds.5 mph65%30.12 "HgN/A
1:20 PM77 °FPartly sunny.3 mph61%30.12 "HgN/A
12:50 PM77 °FPartly sunny.3 mph65%30.12 "HgN/A
12:20 PM73 °FPartly sunny.2 mph74%30.12 "HgN/A
11:50 AM72 °FBroken clouds.2 mph73%30.12 "HgN/A
11:20 AM72 °FBroken clouds.2 mph73%30.12 "HgN/A
10:50 AM72 °FBroken clouds.1 mph73%30.15 "HgN/A
10:20 AM72 °FPartly sunny.3 mph78%30.15 "HgN/A
Weather by CustomWeather, © 2016

See weather overviewHow to use our weather pages